User: anonymous   Login
Location: Wald
(31.7579°N, 86.6655°W)
Time: 18:14:42
(UTC+00:00)
Language:

SL-08 R/B - Orbit

View from above orbital plane
View from above orbital plane
View from above satellite
View from above satellite

Ground track
Ground track

The orbit data is extracted from the following two-line orbital elements,

1 27561U 02054C   20263.40796639  .00000020  00000-0  15386-4 0  9998
2 27561  98.4271  51.0949 0047323 102.8940 257.7549 14.55828252945442
Epoch (UTC): 19 September 2020 09:47:28
Eccentricity: 0.0047323
inclination: 98.4271°
perigee height: 673 km
apogee height: 740 km
right ascension of ascending node: 51.0949°
argument of perigee: 102.8940°
revolutions per day: 14.55828252
mean anomaly at epoch: 257.7549°
orbit number at epoch: 94544

The dashed part of the orbit path shows where the satellite is in the earth's shadow,  

DLR